Погода в Унгасане

Индонезия     8°49′50″S   115°09′55″E
темп.,
°C
ветер,
м/с
пор.,
м/с
влажн.,
%
обл.,
%
осадки,
мм/ч
давл.,
гПа
погр.,
м
5 декабря, вс
вс523:00+27з2378100 0.9 1011273
02:00+27зсз2376100 3.3 1008284
05:00+27з1279100 0.7 1008106
08:00+27з3377100 1.0 1010365
11:00+28з3477100 0.0 1009446
14:00+28зюз667572 0.1 1007560
17:00+28з7880100 3.9 1007537
20:00+28з81079100 8.5 1009763
6 декабря, пн
пн623:00+27з81182100 3.6 1009837
02:00+26з81188100 11.0 1008764
05:00+26з71092100 11.3 1008615
08:00+25з5592100 29.0 1010397
11:00+25сз9989100 3.1 1008469
14:00+27зсз7781100 3.6 1007608
17:00+27зсз7883100 0.6 1007743
20:00+26сз4578100 1.1 1010390
7 декабря, вт
вт723:00+26зсз4683100 2.6 1010454
02:00+27зсз6982100 4.6 1007645
05:00+27з6882100 2.4 1008538
08:00+27з6884100 6.1 1009561
11:00+28з7780100 1.8 1009736
14:00+28зюз7777100 1.8 1008798
17:00+28з7877100 0.1 1008746
20:00+28з5678100 1.3 1010579
8 декабря, ср
ср823:00+28зсз4579100 2.8 1010531
02:00+27зсз348399 6.3 1009232
05:00+27зсз348281 0.0 1008365
08:00+27сз338117 0.3 1010260
11:00+28зюз447773 1.1 1010439
14:00+28зюз45795 2.9 1008229
17:00+28юз33766 1.3 1008322
20:00+28зюз33755 2.3 1010386
9 декабря, чт
чт923:00+28юз347546 0.5 1011502
02:00+28з347799 0.8 1009486
05:00+27з34785 0.8 1009434
08:00+27з237685 0.9 1010454
11:00+28юз337762 0.3 1010514
14:00+28юз4476100 0.4 1008640
17:00+27юз448070 2.7 1008256
20:00+28юз347439 6.7 1010307